Wind_Speed
26 27 28 28 29 29 30 31 31 32 32 32 31 31 30 30 31 32 33 33 34 35 35 36 36 36 35 36 37 37 38 39 46 58 67 68 65 61 59 57 56 52 48 43 40 45 53 58 59 55 52 53
28 28 29 29 29 30 30 31 32 32 33 33 32 31 31 31 32 33 34 34 35 36 36 36 37 37 37 37 38 39 40 40 42 49 60 68 71 70 67 61 57 52 48 44 39 39 44 50 57 59 55 53
27 28 29 30 30 30 30 31 32 33 33 33 33 32 32 32 33 33 34 35 36 37 37 37 38 38 38 39 39 41 41 42 43 45 51 60 69 74 76 73 68 62 56 49 41 38 39 43 51 58 58 56
27 28 29 30 30 30 30 31 32 33 33 33 33 33 33 33 34 35 35 36 37 37 37 37 38 38 39 40 40 42 43 43 45 46 48 53 60 67 74 79 81 78 70 59 49 42 39 40 44 52 58 58
28 28 29 30 30 31 31 31 31 32 33 33 34 33 34 34 35 36 37 37 38 38 38 38 38 38 39 40 41 42 43 44 46 48 49 51 56 60 64 71 80 84 81 72 62 53 46 42 41 46 53 57
28 29 29 30 30 31 31 31 32 32 33 34 34 34 34 35 36 37 38 39 39 40 40 39 39 39 40 41 41 42 43 45 47 49 50 52 55 59 61 63 70 79 85 85 77 67 58 49 43 42 46 51
29 29 29 30 30 31 32 32 33 33 33 34 34 34 35 36 37 38 39 40 41 41 41 41 40 40 41 42 42 42 42 44 46 49 51 53 54 57 61 62 62 68 78 88 88 81 72 62 52 44 42 43
29 29 30 30 30 31 32 32 33 33 33 34 35 35 35 36 37 38 39 40 41 42 42 42 42 41 41 42 42 42 41 42 44 47 50 52 54 55 59 62 60 60 66 76 84 87 84 75 64 54 46 40
29 30 30 30 31 31 31 32 33 33 34 34 34 35 35 36 37 38 39 40 41 42 42 42 42 42 42 42 42 42 41 41 43 45 48 49 52 53 55 59 59 57 59 64 72 81 87 84 76 66 56 46
29 30 31 31 31 32 32 33 33 34 34 35 35 35 35 36 37 37 38 39 40 41 42 42 42 42 42 42 42 42 42 42 42 43 46 47 48 50 51 54 56 55 55 58 61 69 79 84 83 76 68 57
29 30 31 32 32 33 33 34 34 34 35 35 35 35 35 36 37 37 38 39 40 40 41 41 41 41 41 42 41 41 42 41 41 42 45 46 46 47 47 49 52 51 52 55 56 60 68 76 82 81 76 68
30 30 31 32 33 33 34 34 35 35 35 36 36 36 36 36 37 38 38 39 39 40 40 40 40 40 41 41 41 41 41 41 41 41 43 45 45 45 45 45 48 48 48 51 53 54 59 66 75 80 80 76
30 31 32 32 33 34 34 35 35 35 36 36 36 36 36 36 37 38 38 39 39 39 39 39 39 39 40 40 40 40 40 40 40 41 42 44 45 44 44 43 44 46 45 47 51 51 53 58 67 75 78 78
31 31 32 33 34 34 35 35 35 36 37 37 37 36 36 36 37 38 38 39 39 39 39 38 38 38 39 39 39 40 40 39 39 40 41 43 44 43 43 43 41 43 43 44 48 49 50 53 59 68 73 76
31 32 33 34 34 35 35 35 36 37 37 37 37 37 37 37 38 38 39 39 39 39 39 38 37 37 38 39 39 39 39 39 39 39 40 42 43 42 41 42 40 41 42 41 44 46 46 49 52 59 67 71
31 32 33 34 34 35 35 36 37 37 37 38 38 38 37 37 38 38 39 39 39 39 39 37 37 37 37 38 39 39 39 38 38 38 39 41 42 42 40 40 40 40 41 40 41 44 44 45 47 51 59 65
32 32 33 33 34 35 36 37 38 38 38 38 38 38 37 37 37 38 39 39 39 39 39 38 36 36 37 37 38 39 39 38 38 38 38 40 41 41 40 40 39 38 40 39 39 41 42 42 44 46 52 58
33 33 33 34 34 35 36 37 38 38 38 38 38 38 37 37 37 38 38 38 39 39 38 37 36 36 37 37 38 38 39 38 37 37 37 38 40 40 40 39 38 37 38 38 37 38 40 40 41 43 46 51
35 34 34 34 34 35 36 37 38 38 38 38 38 38 37 37 37 37 38 38 39 39 38 37 36 36 36 37 38 38 38 38 37 36 36 37 39 40 39 38 37 35 35 36 35 35 38 39 41 41 42 46
35 35 34 34 34 35 36 37 38 38 38 38 38 38 37 37 37 37 37 38 39 38 37 36 35 36 36 37 38 38 38 37 36 36 35 35 38 39 39 37 35 34 33 33 33 33 36 39 41 41 41 43
35 35 35 35 35 35 36 37 37 38 38 38 39 38 38 37 36 37 37 38 38 38 37 36 35 35 36 37 38 38 37 37 36 35 35 34 36 38 38 35 33 32 31 30 32 33 35 38 40 42 41 42
36 36 36 35 35 35 36 37 37 37 38 39 39 39 38 38 37 37 37 38 38 38 38 37 35 35 35 37 37 37 36 36 35 34 34 33 33 36 36 33 30 29 29 28 29 31 33 35 37 41 42 42
37 37 36 36 36 35 36 37 37 37 38 39 39 39 39 38 38 37 37 38 38 39 38 37 36 35 35 36 37 37 35 34 34 33 32 31 31 33 33 30 28 27 27 26 27 29 30 31 32 36 42 42
37 37 37 37 36 36 36 37 37 38 38 39 39 40 39 38 38 37 37 37 38 39 39 38 36 35 34 36 36 36 34 33 32 31 30 30 30 30 29 28 26 25 25 25 26 27 28 29 29 30 36 42
38 38 38 38 37 37 37 37 38 39 39 39 40 40 40 39 38 37 37 37 38 38 38 38 37 35 34 35 36 36 34 32 31 30 28 28 28 28 27 25 24 23 23 25 25 26 27 28 29 28 30 36
39 39 39 39 38 38 38 38 38 40 40 40 40 40 40 39 39 38 37 37 37 38 38 37 36 35 34 35 36 35 34 32 30 29 27 26 26 26 25 23 22 21 21 24 25 27 28 29 30 30 28 30
39 40 39 39 39 39 38 39 39 40 41 41 41 41 41 41 40 39 38 37 37 37 37 37 36 35 34 34 35 35 34 31 29 28 26 25 25 24 23 22 21 21 20 21 23 25 27 28 29 30 29 28
40 40 40 39 39 39 39 39 40 40 40 41 41 42 42 42 41 41 39 38 37 37 37 37 36 35 34 33 34 35 33 31 29 27 25 24 24 24 23 22 22 21 20 19 20 22 24 26 27 27 27 27
41 41 41 40 40 39 39 39 39 40 41 41 41 41 42 42 42 42 41 39 37 37 36 36 36 36 34 34 34 34 33 31 28 26 25 23 23 23 23 22 22 22 21 19 19 20 22 23 24 25 24 24
42 42 41 41 40 40 40 40 39 40 41 41 41 42 42 43 43 42 42 40 39 37 36 36 36 36 35 34 33 33 33 31 29 26 24 23 22 22 23 22 21 21 22 21 19 19 20 22 24 24 23 22
42 43 42 41 41 41 41 41 40 41 41 41 41 42 43 43 43 43 43 41 40 38 37 36 36 36 35 34 33 33 33 32 30 27 25 23 22 22 23 23 22 21 22 21 20 18 19 21 23 24 23 22
Wind_Direction
321 322 323 322 322 322 321 320 319 319 319 317 317 316 317 317 315 313 312 310 307 305 304 302 301 299 297 295 292 288 282 272 261 252 247 246 243 239 235 233 229 224 224 226 224 223 227 231 233 234 233 229
323 324 324 323 322 322 320 319 319 318 317 315 315 315 316 316 315 313 311 309 307 305 304 303 301 300 298 295 293 291 287 280 271 261 254 249 247 245 242 240 236 230 227 228 225 220 222 226 229 231 234 233
324 324 324 323 322 321 320 319 319 317 316 314 313 314 315 315 313 312 310 308 306 305 304 304 303 302 300 297 294 292 290 286 279 271 263 256 252 249 246 246 244 243 239 233 228 224 221 222 224 226 230 233
324 324 323 322 321 320 320 319 318 316 315 313 313 314 314 313 312 310 308 306 305 304 304 305 304 304 301 299 296 293 291 289 284 279 271 265 260 256 252 250 248 249 247 241 235 230 226 223 222 222 225 230
324 324 323 322 321 320 319 318 317 315 314 313 313 314 314 313 312 309 307 306 305 304 304 305 305 304 302 300 298 295 293 291 287 283 278 272 267 263 259 255 252 250 248 245 241 236 234 230 225 222 222 225
324 324 323 322 321 320 319 318 316 315 314 313 313 314 314 314 312 310 308 307 306 306 305 306 306 305 304 302 300 297 295 292 289 286 282 276 271 268 266 262 257 253 250 249 247 242 239 237 234 228 223 222
324 324 323 322 321 320 319 318 316 315 315 314 314 315 315 314 312 310 309 308 308 307 307 307 307 306 305 304 303 301 298 294 291 288 285 280 276 271 270 267 263 259 255 254 251 247 243 241 240 237 229 224
324 323 322 322 321 320 319 318 316 316 316 315 314 315 314 313 311 310 309 308 308 307 307 307 307 307 306 306 305 304 301 297 292 289 287 284 280 276 273 272 269 265 261 258 255 252 249 245 242 242 238 231
324 323 322 321 321 320 319 317 317 317 316 315 314 314 313 311 310 309 308 307 307 306 306 307 307 307 307 307 307 306 304 300 295 292 289 287 284 281 276 275 274 269 266 263 260 256 254 250 245 243 243 238
326 324 323 322 322 321 320 318 318 318 317 315 314 314 313 312 310 309 308 307 306 306 305 306 306 307 307 307 308 307 306 303 299 295 292 291 289 286 282 278 277 273 268 267 265 260 256 253 249 246 244 242
328 327 326 325 324 323 321 320 319 318 317 316 315 315 314 312 310 309 307 306 305 305 305 305 306 306 307 307 308 308 307 305 302 298 296 294 293 291 288 282 279 276 270 267 268 265 260 256 252 249 246 245
330 329 329 327 326 325 323 321 320 318 317 316 316 315 315 312 310 309 307 305 304 305 305 305 306 306 307 307 307 307 307 305 303 301 298 297 296 294 292 288 283 279 272 267 268 268 265 259 254 251 248 247
331 331 330 329 328 326 324 322 321 319 317 316 316 316 315 313 311 309 307 305 304 304 304 304 305 306 306 307 307 306 306 305 303 301 300 298 297 297 295 292 287 282 275 268 268 269 268 262 255 253 251 248
331 331 330 330 329 327 325 323 322 320 318 317 316 316 315 313 311 309 307 305 304 303 303 304 305 305 306 306 306 305 304 304 304 302 300 298 298 298 296 294 290 284 278 271 268 268 269 266 258 254 253 250
329 329 330 329 328 327 326 324 323 321 319 318 317 316 315 313 311 308 307 305 304 303 302 303 304 305 305 306 305 304 303 303 303 302 300 299 298 298 297 295 292 287 281 274 268 268 268 268 263 256 253 252
326 327 328 328 327 327 326 325 324 322 320 319 317 316 315 313 310 308 306 304 303 301 301 302 303 304 305 305 305 303 302 301 301 301 300 299 298 298 298 296 294 289 283 276 270 268 267 267 266 258 253 252
322 323 325 325 326 327 327 326 324 322 320 319 317 315 314 312 309 307 305 303 301 300 300 301 302 303 305 305 305 303 301 300 300 300 301 300 299 299 299 298 295 291 285 279 272 269 268 266 265 259 253 251
318 319 321 323 325 326 326 325 323 321 319 318 316 314 313 311 309 306 304 302 300 299 299 300 301 303 304 305 305 303 301 300 299 299 300 300 299 299 299 298 296 292 287 281 274 269 268 266 263 258 252 249
315 315 317 320 323 324 324 322 321 320 318 316 315 314 312 311 309 306 303 301 299 298 298 299 301 302 304 305 305 304 302 301 299 299 300 300 299 299 299 297 296 293 288 283 276 270 268 265 261 258 252 248
312 312 314 317 320 320 321 320 320 319 317 315 314 314 312 311 309 306 303 301 298 298 298 298 300 301 303 304 304 303 303 301 300 299 299 300 300 299 299 297 295 293 289 284 278 271 269 265 261 258 254 248
312 311 313 314 316 317 317 318 318 318 317 315 314 314 313 311 310 307 304 301 299 297 297 297 298 300 301 303 303 303 302 301 300 299 299 301 301 300 299 297 294 293 291 285 279 275 273 270 263 259 255 250
312 312 312 312 313 314 314 315 317 317 316 315 315 314 313 312 311 309 306 302 299 297 296 295 296 297 299 301 301 301 302 301 301 300 301 302 302 301 300 298 294 292 291 287 280 277 277 276 270 261 256 252
312 311 310 310 310 311 312 313 315 315 316 315 315 314 314 314 313 310 308 304 300 297 295 294 294 295 297 299 300 300 301 301 301 301 302 303 303 302 302 299 295 291 290 286 280 278 279 280 277 268 260 255
312 311 309 309 309 310 310 311 313 314 314 315 315 315 315 315 313 311 308 304 300 297 294 292 292 293 295 297 298 299 300 300 301 302 303 303 303 303 304 301 297 293 289 285 281 278 279 282 282 276 265 258
312 311 309 309 310 309 309 310 311 312 313 314 314 315 316 315 313 310 307 304 300 295 292 290 290 290 292 295 296 297 298 299 301 303 303 304 304 304 305 305 301 296 290 286 283 280 279 282 284 283 274 262
312 311 310 310 310 309 309 310 310 311 312 313 314 315 316 315 313 310 307 303 299 294 291 288 288 288 290 292 294 295 296 298 299 301 303 303 304 305 306 305 302 297 291 287 284 282 280 280 281 282 280 271
311 310 310 310 310 310 310 310 310 310 311 312 314 315 315 315 313 310 307 303 299 295 290 286 285 286 287 289 291 292 293 295 297 299 301 302 302 303 303 302 300 296 293 288 285 284 281 279 279 278 277 276
310 309 309 310 310 310 310 310 310 309 310 311 312 314 314 314 313 311 308 304 299 295 289 285 283 283 284 286 288 290 291 292 294 296 298 300 300 300 300 299 299 297 295 292 288 286 283 280 278 277 275 275
306 306 308 308 309 309 309 310 310 310 310 311 311 312 313 312 312 311 308 304 300 295 290 283 280 280 281 283 285 286 287 288 290 292 294 296 297 298 298 298 298 297 295 292 289 287 285 283 280 278 277 273
302 302 304 305 306 307 307 309 309 309 310 311 311 311 311 311 311 310 307 304 300 296 291 284 278 277 277 279 281 282 284 285 285 287 289 291 293 295 296 297 298 298 296 293 290 286 284 284 282 281 280 274
298 299 300 302 303 304 304 305 306 306 308 310 310 310 309 309 309 309 307 304 301 297 292 285 279 275 274 275 277 278 280 281 281 282 284 286 289 291 293 295 296 296 297 295 293 288 283 281 281 282 281 277
Height
3118 3116 3114 3112 3110 3108 3106 3104 3103 3101 3099 3098 3097 3095 3094 3093 3091 3090 3089 3088 3087 3085 3084 3083 3081 3079 3078 3076 3074 3072 3072 3072 3072 3071 3071 3071 3072 3071 3070 3070 3072 3073 3073 3074 3074 3076 3078 3081 3085 3086 3086 3087
3114 3112 3111 3109 3107 3105 3104 3102 3100 3098 3096 3095 3093 3092 3090 3089 3088 3087 3086 3084 3083 3082 3081 3079 3077 3075 3073 3071 3069 3067 3066 3066 3066 3066 3065 3065 3065 3065 3064 3065 3066 3066 3067 3068 3070 3070 3071 3074 3077 3080 3082 3082
3112 3110 3108 3106 3105 3103 3101 3099 3097 3095 3094 3092 3090 3088 3086 3085 3084 3083 3082 3081 3080 3078 3077 3075 3073 3071 3069 3066 3065 3062 3061 3060 3060 3059 3059 3058 3058 3058 3059 3060 3060 3060 3060 3062 3064 3065 3066 3067 3070 3073 3076 3077
3109 3107 3105 3103 3102 3100 3098 3096 3094 3092 3091 3089 3087 3085 3083 3081 3080 3079 3078 3077 3075 3074 3073 3071 3069 3067 3064 3062 3060 3057 3056 3055 3053 3052 3052 3051 3050 3050 3051 3053 3053 3053 3054 3056 3058 3060 3061 3062 3064 3066 3069 3072
3107 3105 3103 3101 3099 3097 3095 3093 3091 3090 3088 3086 3084 3081 3079 3077 3076 3075 3074 3072 3071 3069 3067 3066 3064 3062 3060 3057 3055 3052 3050 3049 3047 3045 3045 3044 3043 3042 3043 3044 3045 3046 3046 3048 3051 3053 3055 3057 3058 3059 3061 3065
3104 3102 3100 3098 3096 3094 3091 3090 3088 3086 3084 3082 3080 3078 3075 3073 3072 3070 3069 3067 3065 3063 3062 3060 3059 3057 3055 3053 3050 3048 3046 3044 3041 3039 3038 3037 3036 3035 3034 3036 3037 3038 3038 3039 3042 3046 3048 3051 3052 3053 3055 3057
3101 3099 3097 3095 3093 3090 3088 3086 3085 3082 3080 3078 3076 3074 3071 3069 3068 3066 3064 3062 3060 3058 3056 3055 3054 3052 3050 3048 3046 3044 3041 3039 3036 3034 3032 3030 3029 3029 3027 3028 3029 3030 3030 3030 3033 3036 3040 3044 3046 3047 3048 3050
3098 3096 3094 3092 3090 3087 3085 3083 3081 3079 3077 3075 3073 3070 3068 3066 3065 3062 3060 3058 3056 3053 3051 3050 3048 3047 3045 3043 3041 3039 3037 3034 3031 3028 3026 3024 3022 3022 3021 3020 3021 3023 3022 3022 3024 3027 3030 3035 3040 3042 3043 3044
3096 3093 3091 3089 3087 3084 3082 3080 3078 3075 3073 3071 3070 3067 3065 3063 3061 3059 3056 3054 3052 3049 3047 3045 3043 3041 3039 3037 3036 3034 3032 3029 3026 3023 3020 3018 3016 3015 3015 3013 3013 3015 3016 3015 3016 3018 3020 3024 3031 3035 3037 3039
3093 3091 3088 3086 3083 3081 3079 3077 3074 3072 3070 3068 3066 3064 3062 3059 3057 3055 3053 3051 3048 3046 3043 3041 3039 3037 3034 3032 3030 3028 3026 3024 3022 3019 3015 3013 3011 3009 3009 3008 3006 3008 3009 3009 3009 3010 3012 3015 3021 3027 3031 3033
3090 3088 3085 3082 3080 3078 3075 3073 3071 3069 3066 3064 3062 3060 3058 3056 3054 3052 3050 3047 3045 3043 3040 3038 3036 3033 3030 3028 3025 3023 3021 3020 3017 3014 3011 3008 3006 3004 3003 3003 3001 3001 3002 3003 3003 3003 3004 3007 3011 3017 3023 3026
3087 3085 3082 3079 3076 3074 3072 3070 3067 3065 3063 3060 3058 3056 3054 3052 3050 3048 3046 3044 3041 3039 3036 3034 3031 3029 3026 3023 3021 3019 3017 3015 3013 3010 3007 3004 3001 2999 2998 2998 2996 2996 2997 2997 2997 2997 2998 3000 3003 3008 3014 3018
3084 3081 3079 3076 3073 3071 3069 3066 3064 3061 3058 3056 3054 3052 3050 3048 3046 3044 3042 3039 3037 3034 3032 3029 3027 3024 3022 3019 3017 3014 3012 3011 3009 3006 3003 3000 2998 2995 2993 2993 2992 2990 2991 2992 2991 2991 2992 2993 2995 2999 3005 3010
3081 3078 3076 3073 3071 3068 3065 3063 3060 3057 3054 3052 3050 3048 3046 3043 3041 3039 3037 3035 3032 3030 3028 3025 3023 3021 3018 3015 3013 3010 3008 3006 3004 3002 3000 2996 2994 2992 2989 2988 2987 2986 2985 2986 2986 2986 2986 2986 2988 2992 2996 3002
3078 3076 3073 3070 3068 3065 3062 3059 3056 3053 3051 3048 3045 3043 3041 3039 3037 3034 3032 3030 3028 3025 3023 3021 3019 3017 3014 3011 3009 3006 3004 3002 3000 2998 2996 2993 2989 2988 2986 2984 2983 2982 2980 2980 2981 2981 2981 2980 2981 2985 2989 2994
3076 3073 3070 3067 3065 3062 3058 3055 3052 3049 3046 3044 3041 3039 3037 3034 3032 3030 3028 3026 3024 3021 3019 3017 3015 3012 3010 3008 3005 3002 3000 2998 2996 2994 2992 2989 2986 2983 2982 2980 2979 2977 2976 2975 2975 2975 2976 2976 2976 2980 2983 2986
3073 3070 3067 3064 3061 3057 3054 3050 3048 3045 3042 3040 3037 3035 3033 3030 3028 3026 3024 3022 3019 3017 3015 3012 3010 3008 3006 3004 3001 2998 2996 2993 2991 2989 2987 2985 2982 2979 2978 2976 2975 2973 2971 2971 2971 2970 2971 2972 2973 2975 2977 2980
3069 3066 3063 3060 3057 3053 3050 3047 3044 3042 3039 3036 3034 3031 3029 3026 3024 3021 3019 3017 3015 3013 3010 3008 3006 3004 3002 3000 2997 2994 2992 2989 2987 2985 2983 2981 2978 2975 2974 2972 2971 2969 2967 2967 2967 2966 2966 2968 2970 2971 2972 2974
3066 3063 3060 3057 3053 3050 3047 3044 3041 3038 3035 3032 3030 3027 3025 3022 3020 3017 3015 3013 3011 3008 3006 3003 3001 2999 2997 2995 2993 2990 2988 2985 2983 2980 2979 2977 2974 2971 2970 2968 2967 2965 2964 2963 2963 2964 2963 2964 2965 2966 2967 2968
3062 3059 3056 3053 3050 3047 3044 3041 3037 3034 3031 3028 3026 3023 3021 3018 3015 3013 3010 3008 3006 3004 3002 2999 2997 2995 2993 2991 2989 2986 2984 2981 2979 2976 2975 2973 2970 2967 2966 2965 2963 2961 2961 2960 2960 2961 2960 2960 2960 2960 2960 2962
3058 3055 3052 3049 3046 3043 3040 3037 3034 3030 3027 3024 3021 3019 3016 3014 3011 3008 3006 3004 3001 2999 2997 2995 2993 2991 2989 2987 2985 2983 2980 2978 2975 2972 2970 2969 2966 2963 2961 2961 2960 2958 2957 2957 2958 2958 2957 2957 2956 2955 2955 2957
3054 3051 3048 3045 3043 3040 3036 3033 3030 3026 3023 3020 3017 3014 3011 3009 3006 3004 3001 2999 2997 2995 2993 2991 2989 2987 2985 2983 2981 2979 2977 2974 2971 2969 2966 2965 2963 2960 2957 2956 2956 2955 2954 2954 2955 2955 2954 2953 2952 2951 2951 2951
3050 3047 3044 3041 3038 3036 3032 3029 3026 3022 3019 3015 3012 3009 3006 3004 3001 2999 2996 2994 2992 2990 2988 2987 2985 2983 2981 2979 2977 2975 2973 2970 2968 2966 2963 2961 2959 2957 2954 2952 2952 2951 2951 2951 2951 2951 2951 2949 2948 2947 2946 2946
3046 3043 3040 3037 3034 3032 3028 3025 3022 3018 3015 3011 3008 3005 3002 2999 2997 2994 2992 2989 2987 2986 2984 2982 2981 2979 2977 2975 2973 2971 2969 2967 2964 2962 2960 2958 2956 2954 2951 2949 2948 2948 2948 2947 2947 2947 2947 2945 2943 2942 2941 2941
3042 3039 3035 3032 3030 3027 3024 3021 3017 3014 3011 3007 3004 3001 2997 2995 2992 2990 2987 2985 2983 2981 2980 2978 2976 2975 2973 2971 2969 2967 2965 2963 2961 2959 2957 2955 2953 2951 2949 2946 2945 2945 2945 2944 2944 2944 2943 2941 2939 2938 2937 2937
3038 3034 3031 3028 3025 3022 3019 3016 3013 3010 3006 3003 3000 2996 2993 2990 2988 2985 2983 2981 2979 2977 2975 2974 2972 2970 2969 2967 2965 2963 2962 2960 2958 2956 2953 2952 2950 2949 2947 2944 2943 2943 2942 2942 2941 2941 2940 2938 2936 2935 2934 2935
3033 3030 3027 3024 3021 3018 3015 3012 3009 3006 3002 2998 2995 2992 2989 2986 2983 2981 2979 2977 2974 2972 2971 2969 2968 2966 2965 2963 2961 2959 2958 2956 2954 2952 2950 2949 2947 2946 2944 2943 2941 2940 2940 2939 2939 2938 2937 2936 2935 2933 2932 2932
3029 3025 3022 3020 3017 3013 3011 3008 3005 3002 2999 2995 2992 2988 2985 2982 2979 2976 2974 2972 2970 2968 2966 2965 2963 2962 2960 2959 2957 2956 2954 2953 2951 2949 2947 2946 2944 2944 2942 2940 2939 2938 2937 2937 2936 2935 2934 2933 2932 2930 2930 2929
3024 3021 3018 3015 3012 3009 3006 3004 3001 2997 2994 2991 2987 2984 2981 2978 2975 2972 2970 2968 2966 2963 2962 2960 2959 2958 2956 2955 2953 2952 2951 2949 2948 2946 2944 2943 2941 2940 2940 2938 2937 2935 2934 2934 2934 2933 2931 2930 2929 2928 2927 2926
3019 3016 3013 3010 3007 3005 3002 2999 2996 2993 2989 2986 2982 2979 2976 2973 2970 2968 2965 2963 2961 2959 2957 2956 2955 2953 2952 2951 2949 2948 2947 2946 2944 2943 2941 2940 2938 2937 2936 2936 2934 2933 2931 2931 2931 2930 2928 2927 2925 2924 2924 2923
3014 3011 3008 3005 3002 3000 2997 2994 2991 2987 2985 2981 2978 2974 2971 2968 2966 2963 2961 2958 2956 2955 2953 2951 2950 2949 2948 2946 2945 2944 2943 2942 2941 2939 2938 2937 2935 2934 2933 2932 2932 2930 2929 2927 2927 2927 2926 2924 2922 2921 2921 2920